x

Stingray Point, Va (44058) Weather Station

5:10pm - Fri 26th May 2017 All times are EDT. -4 hours from GMT.

  • Wind
    11mph, 13mph gusts
  • Air Temp 74°f
  • Sea Pressure 1009.4mb
  • Stingray Point, Va
  • Stingray Point, Va

More Historic Weather Station data

Upgrade to MSW Pro to gain access to the past 30 days of data for over 8000 Wavebouys and Weather Stations around the globe.

Join Pro

Comparision Forecast

View Surf forecast
   
Fri 05/26 5:10pm  -   -  11 13 mph 1009.4mb - 74f
5:00pm  -   -  11 18 mph 1009.3mb 69f 74f
4:50pm  -   -  11 13 mph 1009.2mb - 74f
4:40pm  -   -  13 18 mph 1009.3mb - 74f
4:30pm  -   -  13 18 mph 1009.3mb - 74f
4:20pm  -   -  13 16 mph 1009.3mb - 74f
4:10pm  -   -  13 16 mph 1009.3mb - 74f
4:00pm  -   -  16 18 mph 1009.3mb 69f 74f
3:50pm  -   -  16 18 mph 1009.2mb - 74f
3:40pm  -   -  16 18 mph 1009.3mb - 74f
3:30pm  -   -  16 18 mph 1009.1mb - 74f
3:20pm  -   -  13 16 mph 1009mb - 74f
3:10pm  -   -  16 18 mph 1009mb - 74f
3:00pm 1ft 2s 16 18 mph 1009mb 69f 74f
2:50pm  -   -  13 18 mph 1008.8mb - 74f
2:40pm  -   -  11 13 mph 1008.7mb - 73f
2:30pm  -   -  11 13 mph 1008.7mb - 73f
2:20pm  -   -  13 18 mph 1008.7mb - 73f
2:10pm  -   -  11 18 mph 1008.9mb - 73f
2:00pm 1ft 2s 9 11 mph 1009mb 69f 72f
1:50pm  -   -  9 11 mph 1009.3mb - 73f
1:40pm  -   -  11 16 mph 1009.4mb - 73f
1:30pm  -   -  13 16 mph 1009.4mb - 72f
1:20pm  -   -  16 18 mph 1009.4mb - 72f
1:10pm  -   -  16 18 mph 1009.6mb - 72f
1:00pm 1ft 2s 18 22 mph 1009.4mb 68f 73f
12:50pm  -   -  16 18 mph 1009.5mb - 72f
12:40pm  -   -  13 18 mph 1009.5mb - 72f
12:30pm  -   -  13 16 mph 1009.5mb - 71f
12:20pm  -   -  13 18 mph 1009.5mb - 71f
12:10pm  -   -  16 18 mph 1009.4mb - 71f
12:00pm 1ft 2s 11 16 mph 1009.4mb 68f 71f
11:50am  -   -  13 18 mph 1009.4mb - 71f
11:40am  -   -  13 18 mph 1009mb - 71f
11:30am  -   -  13 16 mph 1008.9mb - 71f
11:20am  -   -  16 18 mph 1008.9mb - 71f
11:10am  -   -  16 20 mph 1008.9mb - 71f
11:00am 1.3ft 2s 16 22 mph 1008.8mb 67f 71f
10:50am  -   -  13 18 mph 1008.7mb - 71f
10:40am  -   -  13 18 mph 1008.7mb - 71f
10:30am  -   -  16 20 mph 1008.6mb - 70f
10:20am  -   -  16 20 mph 1008.5mb - 70f
10:10am  -   -  13 18 mph 1008.5mb - 70f
10:00am 1.3ft 3s 16 20 mph 1008.3mb 67f 70f
9:50am  -   -  16 18 mph 1008.2mb - 69f
9:40am  -   -  16 18 mph 1008.1mb - 69f
9:30am  -   -  16 20 mph 1008mb - 69f
9:20am  -   -  18 22 mph 1007.8mb - 68f
9:10am  -   -  18 25 mph 1007.6mb - 68f
9:00am 1.3ft 2s 18 25 mph 1007.6mb 67f 67f
8:50am  -   -  18 22 mph 1007.5mb - 67f
8:40am  -   -  18 22 mph 1007.5mb - 67f
8:30am  -   -  16 20 mph 1007.5mb - 66f
8:20am  -   -  16 20 mph 1007.5mb - 65f
8:10am  -   -  16 22 mph 1007.5mb - 65f
8:00am 1.3ft 2s 16 22 mph 1007.4mb 67f 64f
7:50am  -   -  18 29 mph 1007.2mb - 64f
7:40am  -   -  16 20 mph 1007mb - 63f
7:30am  -   -  18 22 mph 1006.8mb - 63f
7:20am  -   -  16 20 mph 1006.7mb - 63f
7:10am  -   -  13 18 mph 1006.5mb - 62f
7:00am 1ft 2s 16 18 mph 1006.4mb 67f 62f
6:50am  -   -  13 16 mph 1006.1mb - 62f
6:40am  -   -  13 18 mph 1005.9mb - 62f
6:30am  -   -  13 16 mph 1005.7mb - 62f
6:20am  -   -  13 18 mph 1005.5mb - 62f
6:10am  -   -  13 18 mph 1005.3mb - 62f
6:00am 1ft 2s 13 18 mph 1004.9mb 67f 62f
5:50am  -   -  16 20 mph 1004.8mb - 62f
5:40am  -   -  16 20 mph 1004.6mb - 62f
5:30am  -   -  16 20 mph 1004.5mb - 62f
5:20am  -   -  16 20 mph 1004.4mb - 62f
5:10am  -   -  18 22 mph 1004.1mb - 62f
5:00am 1.3ft 2s 20 25 mph 1004mb 67f 63f
4:50am  -   -  20 25 mph 1003.9mb - 63f
4:40am  -   -  20 22 mph 1003.8mb - 63f
4:30am  -   -  20 25 mph 1003.6mb - 62f
4:20am  -   -  20 27 mph 1003.6mb - 62f
4:10am  -   -  20 25 mph 1003.6mb - 62f
4:00am 1.3ft 2s 20 25 mph 1003.5mb 67f 62f
3:50am  -   -  18 22 mph 1003.5mb - 62f
3:40am  -   -  20 25 mph 1003.5mb - 62f
3:30am  -   -  20 25 mph 1003.4mb - 62f
3:20am  -   -  22 27 mph 1003.2mb - 62f
3:10am  -   -  22 27 mph 1003.1mb - 62f
3:00am 1.3ft 2s 20 25 mph 1003mb 68f 62f
2:50am  -   -  18 22 mph 1002.9mb - 62f
2:40am  -   -  18 22 mph 1002.7mb - 62f
2:30am  -   -  18 22 mph 1002.5mb - 62f
2:20am  -   -  18 22 mph 1002.6mb - 63f
2:10am  -   -  20 25 mph 1002.5mb - 63f
2:00am 1.3ft 2s 18 22 mph 1002.4mb 68f 63f
1:50am  -   -  18 22 mph 1002.2mb - 63f
1:40am  -   -  18 22 mph 1002.1mb - 63f
1:30am  -   -  18 22 mph 1002mb - 63f
1:20am  -   -  18 22 mph 1001.9mb - 64f
1:10am  -   -  18 25 mph 1001.8mb - 64f
1:00am 1.6ft 2s 20 22 mph 1001.7mb 67f 64f
12:50am  -   -  20 25 mph 1001.6mb - 64f
12:40am  -   -  20 25 mph 1001.5mb - 64f
12:30am  -   -  22 27 mph 1001.4mb - 64f
12:20am  -   -  22 27 mph 1001.2mb - 64f
12:10am  -   -  22 29 mph 1001.1mb - 64f
12:00am 1.6ft 2s 22 27 mph 1001mb 67f 64f
Thu 05/25 11:50pm  -   -  22 27 mph 1001mb - 64f
11:40pm  -   -  22 25 mph 1000.8mb - 64f
11:30pm  -   -  22 27 mph 1000.8mb - 64f
11:20pm  -   -  22 27 mph 1000.7mb - 64f
11:10pm  -   -  22 25 mph 1000.6mb - 64f
11:00pm 1.3ft 2s 22 25 mph 1000.5mb 67f 64f
10:50pm  -   -  20 27 mph 1000.4mb - 65f
10:40pm  -   -  20 25 mph 1000.3mb - 64f
10:30pm  -   -  20 22 mph 1000.2mb - 64f
10:20pm  -   -  18 22 mph 1000mb - 64f
10:10pm  -   -  20 25 mph 999.8mb - 64f
10:00pm 1.3ft 2s 20 25 mph 999.6mb 67f 65f
9:50pm  -   -  20 25 mph 999.3mb - 65f
9:40pm  -   -  20 27 mph 999.1mb - 65f
9:30pm  -   -  20 25 mph 998.9mb - 65f
9:20pm  -   -  20 25 mph 998.9mb - 65f
9:10pm  -   -  22 27 mph 998.8mb - 65f
9:00pm 1.3ft 2s 22 25 mph 998.7mb 68f 65f
8:50pm  -   -  20 25 mph 998.7mb - 65f
8:40pm  -   -  20 27 mph 998.7mb - 65f
8:30pm  -   -  20 25 mph 998.6mb - 65f
8:20pm  -   -  20 22 mph 998.7mb - 65f
8:10pm  -   -  20 25 mph 998.7mb - 65f
8:00pm 1.3ft 2s 18 22 mph 998.7mb 68f 65f
7:50pm  -   -  18 22 mph 998.9mb - 65f
7:40pm  -   -  18 20 mph 998.9mb - 65f
7:30pm  -   -  18 20 mph 998.8mb - 65f
7:20pm  -   -  16 20 mph 998.7mb - 65f
7:10pm  -   -  18 22 mph 998.7mb - 65f
7:00pm 1.3ft 2s 20 25 mph 998.4mb 67f 65f
6:50pm  -   -  18 22 mph 997.6mb - 64f
6:40pm  -   -  18 22 mph 997mb - 64f
6:30pm  -   -  16 22 mph 997.1mb - 63f
6:20pm  -   -  13 20 mph 997.7mb - 63f
6:10pm  -   -  18 22 mph 998.1mb - 63f
6:00pm 1.3ft 2s 22 34 mph 998.8mb 68f 65f
5:50pm  -   -  27 36 mph 998.6mb - 68f
5:40pm  -   -  16 22 mph 998.3mb - 68f
5:30pm  -   -  4 9 mph 998.2mb - 67f
5:20pm  -   -  13 18 mph 998.3mb - 69f
5:10pm  -   -  13 25 mph 998.1mb - 71f
5:00pm 0.7ft  -  16 18 mph 997.7mb 68f 70f
4:50pm  -   -  18 22 mph 997.7mb - 71f
4:40pm  -   -  16 18 mph 997.7mb - 70f
4:30pm  -   -  13 18 mph 997.7mb - 70f
4:20pm  -   -  11 18 mph 997.7mb - 70f
4:10pm  -   -  9 13 mph 997.7mb - 71f
4:00pm 0.7ft  -  7 9 mph 997.6mb 68f 72f
3:50pm  -   -  4 7 mph 997.7mb - 73f
3:40pm  -   -  4 4 mph 997.9mb - 73f
3:30pm  -   -  7 9 mph 998.2mb - 73f
3:20pm  -   -  9 9 mph 998.5mb - 73f
3:10pm  -   -  7 9 mph 998.7mb - 73f
3:00pm 0.7ft  -  4 9 mph 998.8mb 68f 72f
2:50pm  -   -  4 7 mph 998.8mb - 72f
2:40pm  -   -  4 4 mph 998.9mb - 72f
2:30pm  -   -  4 9 mph 998.9mb - 72f
2:20pm  -   -  9 11 mph 999mb - 73f
2:10pm  -   -  9 11 mph 999.1mb - 73f
2:00pm 1ft 2s 9 11 mph 999.2mb 68f 73f
1:50pm  -   -  9 13 mph 999.4mb - 73f
1:40pm  -   -  11 13 mph 999.6mb - 73f
1:30pm  -   -  13 16 mph 999.7mb - 73f
1:20pm  -   -  16 20 mph 999.8mb - 73f
1:10pm  -   -  9 11 mph 999.9mb - 72f
1:00pm 1ft 2s 9 11 mph 999.9mb 68f 71f
12:50pm  -   -  9 11 mph 999.9mb - 71f
12:40pm  -   -  11 13 mph 999.6mb - 71f
12:30pm  -   -  13 18 mph 999.6mb - 71f
12:20pm  -   -  16 20 mph 999.7mb - 71f
12:10pm  -   -  16 20 mph 999.8mb - 71f
12:00pm 1.3ft 2s 16 18 mph 999.8mb 68f 71f
11:50am  -   -  16 20 mph 999.9mb - 71f
11:40am  -   -  13 18 mph 1000mb - 71f
11:30am  -   -  13 16 mph 1000mb - 70f
11:20am  -   -  13 16 mph 1000.1mb - 70f
11:10am  -   -  13 16 mph 1000.1mb - 70f
11:00am 1ft 2s 13 16 mph 1000mb 67f 70f
10:50am  -   -  13 16 mph 1000mb - 69f
10:40am  -   -  13 16 mph 999.8mb - 69f
10:30am  -   -  13 16 mph 999.7mb - 69f
10:20am  -   -  13 16 mph 999.5mb - 69f
10:10am  -   -  11 13 mph 999.5mb - 70f
10:00am 1.3ft 2s 11 13 mph 999.5mb 67f 70f
9:50am  -   -  13 16 mph 999.5mb - 70f
9:40am  -   -  11 13 mph 999.5mb - 70f
9:30am  -   -  11 13 mph 999.4mb - 69f
9:20am  -   -  7 11 mph 999.4mb - 69f
9:10am  -   -  7 7 mph 999.2mb - 69f
9:00am 2ft 3s 7 9 mph 999mb 67f 69f
8:50am  -   -  7 11 mph 998.9mb - 68f
8:40am  -   -  11 13 mph 998.9mb - 68f
8:30am  -   -  13 16 mph 998.7mb - 68f
8:20am  -   -  13 16 mph 998.5mb - 68f
8:10am  -   -  11 13 mph 998.5mb - 68f
8:00am 2.5ft 3s 11 11 mph 998.5mb 67f 68f
7:50am  -   -  13 16 mph 998.6mb - 67f
7:40am  -   -  16 18 mph 998.5mb - 67f
7:30am  -   -  18 20 mph 998.6mb - 67f
7:20am  -   -  18 22 mph 998.5mb - 67f
7:10am  -   -  16 20 mph 998.5mb - 67f
7:00am 3ft 3s 16 20 mph 998.5mb 67f 67f
6:50am  -   -  18 22 mph 998.4mb - 67f
6:40am  -   -  18 20 mph 998.6mb - 68f
6:30am  -   -  18 25 mph 998.6mb - 67f
6:20am  -   -  20 25 mph 998.6mb - 67f
6:10am  -   -  20 22 mph 998.4mb - 67f
6:00am 3.5ft 4s 20 25 mph 998.3mb 67f 67f
5:50am  -   -  20 25 mph 998.5mb - 67f
5:40am  -   -  20 25 mph 998.4mb - 67f
5:30am  -   -  20 25 mph 998.5mb - 67f
5:20am  -   -  20 25 mph 998.3mb - 67f
5:10am  -   -  20 25 mph 998.5mb - 67f
5:00am 2.5ft 3s 20 25 mph 998.6mb 67f 67f
4:50am  -   -  20 22 mph 998.7mb - 67f
4:40am  -   -  20 25 mph 998.6mb - 67f
4:30am  -   -  20 25 mph 999.1mb - 67f
4:20am  -   -  18 22 mph 999.4mb - 67f
4:10am  -   -  16 22 mph 999.6mb - 66f
4:00am 3ft 4s 16 20 mph 999.6mb 67f 66f
3:50am  -   -  18 20 mph 999.4mb - 65f
3:40am  -   -  18 22 mph 999.4mb - 65f
3:30am  -   -  18 22 mph 999.6mb - 64f
3:20am  -   -  20 25 mph 999.7mb - 64f
3:10am  -   -  20 25 mph 999.9mb - 64f
3:00am 3.5ft 4s 20 25 mph 1000.2mb 67f 64f
2:50am  -   -  20 27 mph 1000.4mb - 64f
2:40am  -   -  22 27 mph 1000.6mb - 63f
2:30am  -   -  20 27 mph 1000.8mb - 63f
2:20am  -   -  20 27 mph 1001.1mb - 63f
2:10am  -   -  20 25 mph 1001.5mb - 62f
2:00am 3ft 3s 20 25 mph 1002.5mb 67f 62f
1:50am  -   -  20 25 mph 1002.9mb - 61f
1:40am  -   -  20 27 mph 1003.1mb - 61f
1:30am  -   -  20 25 mph 1003mb - 61f
1:20am  -   -  20 25 mph 1003mb - 60f
1:10am  -   -  20 22 mph 1003.1mb - 60f
1:00am 2.5ft 3s 20 25 mph 1003mb 67f 60f
12:50am  -   -  20 25 mph 1003.4mb - 60f
12:40am  -   -  18 22 mph 1004.5mb - 60f
12:30am  -   -  18 22 mph 1004.5mb - 60f
12:20am  -   -  18 22 mph 1004.5mb - 60f
12:10am  -   -  20 22 mph 1004.6mb - 60f
12:00am 2.5ft 3s 18 22 mph 1004.6mb 67f 60f
Wed 05/24 11:50pm  -   -  18 22 mph 1004.6mb - 60f
11:40pm  -   -  18 22 mph 1004.6mb - 60f
11:30pm  -   -  18 20 mph 1004.6mb - 60f
11:20pm  -   -  16 18 mph 1004.7mb - 59f
11:10pm  -   -  16 18 mph 1004.8mb - 59f
11:00pm 2.5ft 3s 16 18 mph 1005mb 67f 59f
10:50pm  -   -  16 20 mph 1005.1mb - 60f
10:40pm  -   -  18 22 mph 1005.2mb - 59f
10:30pm  -   -  16 20 mph 1005.2mb - 59f
10:20pm  -   -  18 20 mph 1005.4mb - 60f
10:10pm  -   -  18 22 mph 1005.6mb - 60f
10:00pm 2.5ft 3s 18 22 mph 1005.7mb 67f 60f
9:50pm  -   -  18 22 mph 1005.8mb - 60f
9:40pm  -   -  18 22 mph 1005.9mb - 60f
9:30pm  -   -  18 22 mph 1006mb - 60f
9:20pm  -   -  18 22 mph 1006mb - 60f
9:10pm  -   -  18 20 mph 1006mb - 60f
9:00pm 2.5ft 3s 18 20 mph 1006.1mb 67f 60f
8:50pm  -   -  18 22 mph 1006.3mb - 60f
8:40pm  -   -  20 22 mph 1006.2mb - 60f
8:30pm  -   -  20 22 mph 1005.9mb - 60f
8:20pm  -   -  18 22 mph 1005.9mb - 60f
8:10pm  -   -  18 22 mph 1005.6mb - 60f
8:00pm 2ft 3s 18 22 mph 1005.4mb 67f 60f
7:50pm  -   -  18 22 mph 1005.5mb - 60f
7:40pm  -   -  18 22 mph 1005.9mb - 60f
7:30pm  -   -  18 20 mph 1006.2mb - 61f
7:20pm  -   -  18 22 mph 1006.2mb - 61f
7:10pm  -   -  18 22 mph 1006.4mb - 61f
7:00pm 2ft 3s 18 22 mph 1006.6mb 67f 62f
6:50pm  -   -  18 22 mph 1006.6mb - 62f
6:40pm  -   -  18 20 mph 1006.5mb - 62f
6:30pm  -   -  18 20 mph 1006.5mb - 62f
6:20pm  -   -  18 20 mph 1006.4mb - 62f
6:10pm  -   -  18 20 mph 1006.3mb - 62f
6:00pm 1.6ft 3s 16 18 mph 1006.2mb 68f 62f
5:50pm  -   -  16 18 mph 1006.2mb - 62f
5:40pm  -   -  13 18 mph 1006.1mb - 62f
5:30pm  -   -  13 16 mph 1006.3mb - 63f
5:20pm  -   -  13 16 mph 1006.5mb - 62f
5:10pm  -   -  13 18 mph 1006.6mb - 62f
5:00pm 1ft 2s 13 16 mph 1006.7mb 67f 62f
4:50pm  -   -  13 16 mph 1006.6mb - 62f
4:40pm  -   -  11 16 mph 1006.6mb - 62f
4:30pm  -   -  11 13 mph 1006.8mb - 63f
4:20pm  -   -  11 13 mph 1006.5mb - 63f
4:10pm  -   -  9 13 mph 1006.4mb - 63f
4:00pm 1ft 2s 9 11 mph 1006.5mb 67f 63f
3:50pm  -   -  9 13 mph 1006.8mb - 63f
3:40pm  -   -  9 11 mph 1006.8mb - 62f
3:30pm  -   -  7 11 mph 1007mb - 62f
3:20pm  -   -  7 13 mph 1006.9mb - 62f
3:10pm  -   -  9 11 mph 1006.5mb - 62f
3:00pm 1ft 2s 9 11 mph 1006.6mb 67f 62f
2:50pm  -   -  7 11 mph 1006.7mb - 62f
2:40pm  -   -  9 9 mph 1006.8mb - 62f
2:30pm  -   -  7 9 mph 1007mb - 62f
2:20pm  -   -  4 7 mph 1007.2mb - 62f
2:10pm  -   -  7 9 mph 1007mb - 62f
2:00pm 1ft 3s 4 9 mph 1007.1mb 67f 62f
1:50pm  -   -  4 7 mph 1007.4mb - 62f
1:40pm  -   -  7 9 mph 1007.1mb - 62f
1:30pm  -   -  7 9 mph 1006.9mb - 62f
1:20pm  -   -  9 11 mph 1006.8mb - 62f
1:10pm  -   -  7 9 mph 1006.8mb - 62f
1:00pm 1.3ft 3s 7 9 mph 1006.7mb 67f 62f
12:50pm  -   -  7 9 mph 1006.6mb - 62f
12:40pm  -   -  7 9 mph 1006.5mb - 62f
12:30pm  -   -  9 11 mph 1006.5mb - 62f
12:20pm  -   -  9 11 mph 1006.5mb - 62f
12:10pm  -   -  9 11 mph 1006.4mb - 62f
12:00pm 1.3ft 3s 9 11 mph 1006.6mb 68f 62f
11:50am  -   -  9 11 mph 1006.7mb - 62f
11:40am  -   -  9 11 mph 1006.9mb - 62f
11:30am  -   -  9 11 mph 1006.9mb - 62f
11:20am  -   -  9 13 mph 1006.8mb - 62f
11:10am  -   -  11 13 mph 1006.6mb - 62f
11:00am 1.6ft 3s 11 16 mph 1006.5mb 68f 62f
10:50am  -   -  13 18 mph 1006.1mb - 62f
10:40am  -   -  11 16 mph 1006.3mb - 62f
10:30am  -   -  11 13 mph 1006.2mb - 62f
10:20am  -   -  11 13 mph 1006.2mb - 62f
10:10am  -   -  11 13 mph 1006.2mb - 62f
10:00am 1.6ft 3s 11 16 mph 1006.3mb 68f 62f
9:50am  -   -  11 13 mph 1006.4mb - 61f
9:40am  -   -  11 13 mph 1006.2mb - 61f
9:30am  -   -  11 13 mph 1006.1mb - 61f
9:20am  -   -  13 16 mph 1005.9mb - 61f
9:10am  -   -  13 18 mph 1005.9mb - 61f
9:00am 2ft 3s 13 16 mph 1005.7mb 68f 61f
8:50am  -   -  13 16 mph 1005.6mb - 61f
8:40am  -   -  16 18 mph 1005.4mb - 61f
8:30am  -   -  16 18 mph 1005.1mb - 61f
8:20am  -   -  16 20 mph 1004.7mb - 61f
8:10am  -   -  18 20 mph 1004.4mb - 60f
8:00am 2.5ft 3s 18 22 mph 1004.2mb 68f 60f
7:50am  -   -  18 22 mph 1004.2mb - 60f
7:40am  -   -  18 22 mph 1004.2mb - 60f
7:30am  -   -  18 20 mph 1004.3mb - 60f
7:20am  -   -  18 20 mph 1004.3mb - 60f
7:10am  -   -  18 20 mph 1004.3mb - 60f
7:00am 2.5ft 3s 18 22 mph 1004.3mb 68f 60f
6:50am  -   -  18 20 mph 1004.5mb - 60f
6:40am  -   -  16 20 mph 1004.6mb - 60f
6:30am  -   -  16 20 mph 1004.9mb - 60f
6:20am  -   -  18 22 mph 1005mb - 61f
6:10am  -   -  18 20 mph 1005mb - 61f
6:00am 2.5ft 3s 16 20 mph 1004.9mb 68f 61f
5:50am  -   -  18 20 mph 1004.8mb - 61f
5:40am  -   -  16 20 mph 1004.7mb - 61f
5:30am  -   -  18 20 mph 1004.6mb - 61f
5:20am  -   -  18 22 mph 1004.4mb - 61f
5:10am  -   -  18 22 mph 1004.3mb - 61f
5:00am 2.5ft 3s 18 22 mph 1004.3mb 68f 61f
4:50am  -   -  18 20 mph 1004.3mb - 62f
4:40am  -   -  18 22 mph 1004.1mb - 62f
4:30am  -   -  20 22 mph 1004mb - 62f
4:20am  -   -  20 25 mph 1003.9mb - 62f
4:10am  -   -  20 25 mph 1004.2mb - 62f
4:00am 2.5ft 3s 20 22 mph 1004.2mb 68f 61f
3:50am  -   -  18 22 mph 1004.3mb - 62f
3:40am  -   -  18 22 mph 1004.3mb - 62f
3:30am  -   -  18 22 mph 1004.3mb - 62f
3:20am  -   -  18 22 mph 1004.3mb - 61f
3:10am  -   -  18 22 mph 1004.3mb - 62f
3:00am 2.5ft 3s 18 22 mph 1004.3mb 68f 62f
2:50am  -   -  18 22 mph 1004.4mb - 62f
2:40am  -   -  18 22 mph 1004.5mb - 62f
2:30am  -   -  18 22 mph 1004.6mb - 62f
2:20am  -   -  18 22 mph 1004.6mb - 62f
2:10am  -   -  18 22 mph 1004.5mb - 62f
2:00am 2.5ft 3s 18 22 mph 1004.6mb 68f 62f
1:50am  -   -  18 20 mph 1004.5mb - 61f
1:40am  -   -  18 22 mph 1004.5mb - 62f
1:30am  -   -  18 22 mph 1004.5mb - 62f
1:20am  -   -  18 20 mph 1004.5mb - 62f
1:10am  -   -  20 22 mph 1004.4mb - 62f
1:00am 2.5ft 3s 18 20 mph 1004.5mb 68f 62f
12:50am  -   -  20 25 mph 1004.5mb - 62f
12:40am  -   -  18 22 mph 1004.6mb - 62f
12:30am  -   -  18 20 mph 1004.7mb - 62f
12:20am  -   -  16 20 mph 1004.8mb - 62f
12:10am  -   -  16 20 mph 1004.9mb - 62f
12:00am 2.5ft 3s 16 18 mph 1005mb 68f 62f
Tue 05/23 11:50pm  -   -  18 22 mph 1005mb - 62f
11:40pm  -   -  20 22 mph 1005.1mb - 62f
11:30pm  -   -  20 25 mph 1005.2mb - 62f
11:20pm  -   -  20 25 mph 1005.4mb - 62f
11:10pm  -   -  20 22 mph 1006mb - 62f
11:00pm 2.5ft 3s 20 25 mph 1006.2mb 68f 63f
10:50pm  -   -  20 22 mph 1006.5mb - 62f
10:40pm  -   -  20 22 mph 1006.6mb - 63f
10:30pm  -   -  18 22 mph 1006.7mb - 62f
10:20pm  -   -  18 22 mph 1006.8mb - 62f
10:10pm  -   -  18 22 mph 1006.8mb - 62f
10:00pm 2.5ft 3s 18 22 mph 1006.8mb 68f 62f
9:50pm  -   -  18 22 mph 1006.9mb - 62f
9:40pm  -   -  18 20 mph 1007mb - 62f
9:30pm  -   -  18 22 mph 1007mb - 62f
9:20pm  -   -  18 22 mph 1007.1mb - 62f
9:10pm  -   -  18 22 mph 1007.2mb - 62f
9:00pm 2.5ft 3s 18 22 mph 1007.3mb 68f 63f
8:50pm  -   -  18 20 mph 1007.3mb - 62f
8:40pm  -   -  18 22 mph 1007.4mb - 63f
8:30pm  -   -  18 20 mph 1007.4mb - 63f
8:20pm  -   -  18 20 mph 1007.4mb - 63f
8:10pm  -   -  18 20 mph 1007.5mb - 63f
8:00pm 2.5ft 3s 18 20 mph 1007.5mb 68f 62f
7:50pm  -   -  18 20 mph 1007.5mb - 63f
7:40pm  -   -  18 20 mph 1007.5mb - 63f
7:30pm  -   -  18 20 mph 1007.6mb - 62f
7:20pm  -   -  18 20 mph 1007.8mb - 62f
7:10pm  -   -  16 18 mph 1007.9mb - 62f
7:00pm 1.6ft 3s 16 18 mph 1007.9mb 68f 62f
6:50pm  -   -  16 18 mph 1008.2mb - 62f
6:40pm  -   -  13 16 mph 1008.3mb - 62f
6:30pm  -   -  13 18 mph 1008.3mb - 62f
6:20pm  -   -  13 16 mph 1008.2mb - 62f
6:10pm  -   -  16 18 mph 1008.3mb - 62f
6:00pm 1.6ft 3s 16 18 mph 1008.4mb 68f 62f
5:50pm  -   -  13 18 mph 1008.4mb - 62f
5:40pm  -   -  13 16 mph 1008.7mb - 62f
5:30pm  -   -  13 16 mph 1008.7mb - 62f
5:20pm  -   -  13 16 mph 1008.9mb - 63f
5:10pm  -   -  13 16 mph 1009mb - 63f
5:00pm 2ft 3s 13 18 mph 1009.1mb 68f 63f
4:50pm  -   -  13 16 mph 1009.3mb - 63f
4:40pm  -   -  13 16 mph 1009.4mb - 63f
4:30pm  -   -  13 16 mph 1009.5mb - 63f
4:20pm  -   -  13 16 mph 1009.6mb - 63f
4:10pm  -   -  13 18 mph 1009.6mb - 63f
4:00pm 1.6ft 3s 16 18 mph 1009.7mb 68f 63f
3:50pm  -   -  13 18 mph 1010.1mb - 63f
3:40pm  -   -  13 16 mph 1010.3mb - 63f
3:30pm  -   -  13 16 mph 1010.5mb - 63f
3:20pm  -   -  13 18 mph 1010.6mb - 63f
3:10pm  -   -  13 16 mph 1010.7mb - 63f
3:00pm 1.6ft 3s 13 18 mph 1010.8mb 68f 63f
2:50pm  -   -  13 18 mph 1011.1mb - 63f
2:40pm  -   -  13 16 mph 1011mb - 63f
2:30pm  -   -  13 18 mph 1010.9mb - 64f
2:20pm  -   -  13 16 mph 1011.3mb - 64f
2:10pm  -   -  13 16 mph 1011.5mb - 64f
2:00pm 1.6ft 3s 13 16 mph 1011.6mb 68f 64f
1:50pm  -   -  13 16 mph 1011.8mb - 64f
1:40pm  -   -  13 18 mph 1011.7mb - 64f
1:30pm  -   -  13 16 mph 1012.2mb - 64f
1:20pm  -   -  13 16 mph 1012.2mb - 64f
1:10pm  -   -  13 18 mph 1012.4mb - 64f
1:00pm 2ft 3s 13 16 mph 1012.4mb 68f 64f
12:50pm  -   -  16 18 mph 1012.4mb - 64f
12:40pm  -   -  13 16 mph 1012.4mb - 64f
12:30pm  -   -  13 16 mph 1013.2mb - 64f
12:20pm  -   -  13 16 mph 1013.2mb - 64f
12:10pm  -   -  13 18 mph 1013mb - 64f
12:00pm 2ft 3s 13 16 mph 1012.9mb 68f 64f
11:50am  -   -  13 18 mph 1012.8mb - 64f
11:40am  -   -  16 20 mph 1012.7mb - 64f
11:30am  -   -  13 16 mph 1012.9mb - 64f
11:20am  -   -  13 18 mph 1013.1mb - 64f
11:10am  -   -  13 18 mph 1013.2mb - 65f
11:00am 2ft 3s 16 20 mph 1013.2mb 68f 65f
10:50am  -   -  18 20 mph 1013.1mb - 65f
10:40am  -   -  18 20 mph 1013.1mb - 65f
10:30am  -   -  18 20 mph 1012.8mb - 65f
10:20am  -   -  16 20 mph 1012.8mb - 65f
10:10am  -   -  16 18 mph 1012.7mb - 65f
10:00am 1.6ft 3s 13 16 mph 1012.8mb 68f 65f
9:50am  -   -  13 16 mph 1013mb - 65f
9:40am  -   -  13 18 mph 1013.2mb - 66f
9:30am  -   -  13 16 mph 1013.4mb - 66f
9:20am  -   -  13 16 mph 1013.5mb - 66f
9:10am  -   -  16 18 mph 1013.5mb - 66f
9:00am 1.3ft 3s 13 18 mph 1013.7mb 68f 66f
8:50am  -   -  13 16 mph 1013.7mb - 66f
8:40am  -   -  11 13 mph 1013.6mb - 66f
8:30am  -   -  11 16 mph 1013.5mb - 66f
8:20am  -   -  11 16 mph 1013.5mb - 66f
8:10am  -   -  13 16 mph 1013.5mb - 66f
8:00am 1.3ft 3s 13 16 mph 1013.5mb 68f 66f
7:50am  -   -  13 16 mph 1013.4mb - 67f
7:40am  -   -  13 16 mph 1013.5mb - 66f
7:30am  -   -  11 16 mph 1013.5mb - 66f
7:20am  -   -  11 13 mph 1013.5mb - 66f
7:10am  -   -  11 13 mph 1013.5mb - 66f
7:00am 1ft 2s 11 13 mph 1013.4mb 68f 66f
6:50am  -   -  11 13 mph 1013.4mb - 66f
6:40am  -   -  11 13 mph 1013.3mb - 66f
6:30am  -   -  11 13 mph 1013.2mb - 66f
6:20am  -   -  13 13 mph 1013.2mb - 66f
6:10am  -   -  11 13 mph 1013.3mb - 66f
6:00am 1ft 2s 11 13 mph 1013.2mb 68f 66f
5:50am  -   -  13 16 mph 1013mb - 66f
5:40am  -   -  11 13 mph 1013mb - 66f
5:30am  -   -  11 13 mph 1013mb - 66f
5:20am  -   -  11 13 mph 1012.9mb - 66f
5:10am  -   -  11 13 mph 1013mb - 66f
5:00am 1ft 2s 11 13 mph 1013.1mb 68f 65f
4:50am  -   -  11 16 mph 1013mb - 65f
4:40am  -   -  11 16 mph 1013mb - 65f
4:30am  -   -  11 13 mph 1013.2mb - 65f
4:20am  -   -  11 16 mph 1013.2mb - 65f
4:10am  -   -  11 13 mph 1013mb - 65f
4:00am 0.7ft  -  9 13 mph 1013mb 68f 65f
3:50am  -   -  9 11 mph 1013.2mb - 65f
3:40am  -   -  7 9 mph 1013.4mb - 65f
3:30am  -   -  4 4 mph 1013.4mb - 64f
3:20am  -   -  2 7 mph 1013.4mb - 64f
3:10am  -   -  2 4 mph 1013.3mb - 64f
3:00am 0.7ft  -   -  2 mph 1013.3mb 68f 64f
2:50am  -   -  2 7 mph 1013.2mb - 64f
2:40am  -   -  2 4 mph 1013.1mb - 64f
2:30am  -   -  4 7 mph 1013.3mb - 64f
2:20am  -   -  4 7 mph 1013.3mb - 64f
2:10am  -   -  7 9 mph 1013.5mb - 64f
1:50am  -   -  7 9 mph 1013.5mb - 65f
1:40am  -   -  4 7 mph 1013.5mb - 65f
1:30am  -   -  4 4 mph 1013.4mb - 65f
1:20am  -   -  4 4 mph 1013.6mb - 65f
1:10am  -   -  4 7 mph 1013.7mb - 65f
1:00am 0.7ft  -  4 7 mph 1013.9mb 68f 65f
12:50am  -   -  4 7 mph 1014.2mb - 65f
12:40am  -   -  7 7 mph 1014.1mb - 65f
12:30am  -   -  7 9 mph 1014mb - 65f
12:20am  -   -  9 9 mph 1014mb - 66f
12:10am  -   -  9 11 mph 1014.2mb - 66f
12:00am 0.7ft  -  7 9 mph 1014.3mb 69f 66f
Mon 05/22 11:50pm  -   -  7 9 mph 1014.3mb - 66f
11:40pm  -   -  4 7 mph 1014.4mb - 66f
11:30pm  -   -  7 7 mph 1014.4mb - 67f
11:20pm  -   -  9 11 mph 1014.3mb - 67f
11:10pm  -   -  9 11 mph 1014.3mb - 67f
11:00pm 1ft 2s 9 11 mph 1014.3mb 68f 67f
10:50pm  -   -  9 9 mph 1014.4mb - 67f
10:40pm  -   -  9 9 mph 1014.4mb - 67f
10:30pm  -   -  9 9 mph 1014.3mb - 67f
10:20pm  -   -  9 9 mph 1014.3mb - 67f